Weather History for KLWD - February, 2014

Change the Weather History Date:

Monday, February 17, 2014

  Actual Average Record
Temperature  
Mean Temperature 36 °F 29 °F  
Max Temperature 46 °F 38 °F 69 °F (2011)
Min Temperature 25 °F 19 °F -5 °F (1979)
Degree Days  
Heating Degree Days 29 36  
Month to date heating degree days 875 651  
Since 1 July heating degree days 4856 4343  
Cooling Degree Days 0 0  
Month to date cooling degree days 0 0  
Year to date cooling degree days 0 0  
Moisture  
Dew Point 27 °F    
Average Humidity 77    
Maximum Humidity 100    
Minimum Humidity 53    
Precipitation  
Precipitation 0.09 in 0.04 in 1.05 in (1992)
Month to date precipitation 0.90 0.80  
Sea Level Pressure  
Sea Level Pressure 29.86 in    
Wind  
Wind Speed 11 mph (SW)    
Max Wind Speed 24 mph    
Max Gust Speed 32 mph    
Visibility 6 miles    
Events Fog , Rain , Snow    
T = Trace of Precipitation, MM = Missing Value Source: NWS Daily Summary

Daily Weather History Graph

Daily Weather History Graph

Search for Another Location

Airport or City:

Trip Planner

Search our weather history database for the weather conditions in past years. The results will help you decide how hot, cold, wet, or windy it might be!

Date:

Astronomy

Feb. 17, 2014 Rise Set
Actual Time 7:06 AM CST 5:53 PM CST
Civil Twilight 6:38 AM CST 6:20 PM CST
Nautical Twilight 6:06 AM CST 6:52 PM CST
Astronomical Twilight 5:35 AM CST 7:24 PM CST
Moon 8:49 PM CST (2/17) 8:06 AM CST (2/17)
Length of Visible Light 11h 42m
Length of Day
10h 46m
Waning Gibbous, 93% of the Moon is Illuminated
Feb 17
Waning Gibbous
Feb 22
Last Quarter
Mar 1
New
Mar 8
First Quarter
Mar 16
Full

Hourly Weather History & Observations

Time (CST) Temp. Windchill Dew Point Humidity Pressure Visibility Wind Dir Wind Speed Gust Speed Precip Events Conditions
12:53 AM 26.1 °F 16.2 °F 21.0 °F 81% 29.96 in 9.0 mi ESE 10.4 mph - N/A   Clear
1:53 AM 27.0 °F 18.0 °F 21.9 °F 81% 29.93 in 9.0 mi ESE 9.2 mph - N/A   Overcast
2:53 AM 27.0 °F 18.7 °F 21.9 °F 81% 29.90 in 8.0 mi ESE 8.1 mph - 0.00 in   Overcast
3:53 AM 28.0 °F 19.3 °F 24.1 °F 85% 29.86 in 7.0 mi SE 9.2 mph - 0.00 in   Overcast
4:21 AM 28.0 °F 17.5 °F 24.1 °F 85% 29.79 in 6.0 mi SE 12.7 mph - 0.00 in Rain Light Freezing Rain
4:33 AM 28.0 °F 18.1 °F 24.1 °F 85% 29.80 in 7.0 mi SE 11.5 mph - 0.00 in   Overcast
4:53 AM 28.9 °F 19.8 °F 25.0 °F 85% 29.82 in 6.0 mi ESE 10.4 mph - 0.00 in   Overcast
5:45 AM 28.9 °F 20.4 °F 25.0 °F 85% 29.76 in 4.0 mi SE 9.2 mph - 0.02 in Rain Light Freezing Rain
5:53 AM 28.9 °F 22.8 °F 26.1 °F 89% 29.82 in 5.0 mi SSE 5.8 mph - 0.02 in Rain Light Freezing Rain
6:01 AM 28.9 °F 20.4 °F 26.1 °F 89% 29.79 in 5.0 mi SE 9.2 mph - 0.00 in Rain Light Freezing Rain
6:13 AM 28.9 °F 22.8 °F 26.1 °F 89% 29.80 in 5.0 mi SSE 5.8 mph - 0.00 in   Overcast
6:30 AM 28.9 °F 22.8 °F 26.1 °F 89% 29.79 in 4.0 mi SSE 5.8 mph - 0.00 in Rain Light Freezing Rain
6:53 AM 30.0 °F 24.1 °F 27.0 °F 88% 29.84 in 3.0 mi SSE 5.8 mph - 0.01 in   Overcast
7:17 AM 28.9 °F 21.1 °F 27.0 °F 92% 29.78 in 2.5 mi SSE 8.1 mph - 0.00 in   Overcast
7:27 AM 28.9 °F 22.8 °F 28.0 °F 96% 29.80 in 1.2 mi South 5.8 mph - 0.03 in Snow Light Snow
7:34 AM 28.9 °F 22.8 °F 28.0 °F 96% 29.81 in 1.0 mi South 5.8 mph - 0.04 in Snow Light Snow
7:42 AM 28.9 °F 21.9 °F 28.0 °F 96% 29.82 in 0.5 mi SSW 6.9 mph - 0.05 in Fog , Snow Light Snow
7:53 AM 28.9 °F 22.8 °F 28.0 °F 96% 29.86 in 0.8 mi SW 5.8 mph - 0.06 in Snow Light Snow
8:01 AM 30.0 °F 25.2 °F 28.0 °F 92% 29.82 in 1.2 mi WSW 4.6 mph - 0.00 in Snow Light Snow
8:25 AM 30.0 °F 22.4 °F 28.0 °F 92% 29.83 in 2.0 mi WSW 8.1 mph - 0.00 in   Overcast
8:35 AM 30.0 °F 22.4 °F 28.0 °F 92% 29.82 in 1.5 mi West 8.1 mph - 0.00 in Snow Light Snow
8:53 AM 30.0 °F 22.4 °F 28.9 °F 96% 29.87 in 1.5 mi West 8.1 mph - 0.00 in Snow Light Snow
9:10 AM 30.9 °F 22.8 °F 28.9 °F 92% 29.82 in 2.0 mi West 9.2 mph - 0.00 in   Overcast
9:28 AM 32.0 °F 24.2 °F 30.0 °F 92% 29.82 in 3.0 mi West 9.2 mph - 0.00 in   Overcast
9:53 AM 33.1 °F 23.4 °F 30.0 °F 89% 29.87 in 5.0 mi WNW 13.8 mph - 0.00 in   Overcast
10:06 AM 34.0 °F 23.8 °F 30.0 °F 85% 29.83 in 6.0 mi WNW 16.1 mph - N/A   Mostly Cloudy
10:23 AM 35.1 °F 24.8 °F 30.0 °F 82% 29.83 in 8.0 mi WNW 17.3 mph - N/A   Partly Cloudy
10:53 AM 36.0 °F 25.6 °F 30.0 °F 79% 29.89 in 9.0 mi WNW 18.4 mph 25.3 mph N/A   Clear
11:53 AM 39.0 °F 29.6 °F 30.9 °F 73% 29.90 in 10.0 mi West 18.4 mph - N/A   Clear
12:53 PM 41.0 °F 31.6 °F 30.9 °F 67% 29.88 in 10.0 mi WNW 20.7 mph 28.8 mph N/A   Clear
1:53 PM 43.0 °F 34.5 °F 32.0 °F 65% 29.87 in 10.0 mi West 19.6 mph 24.2 mph N/A   Clear
2:53 PM 45.0 °F 37.6 °F 30.9 °F 58% 29.88 in 10.0 mi West 17.3 mph - N/A   Clear
3:53 PM 46.0 °F 40.2 °F 30.0 °F 54% 29.91 in 10.0 mi West 12.7 mph - N/A   Clear
4:53 PM 44.1 °F 38.1 °F 28.9 °F 55% 29.94 in 10.0 mi West 11.5 mph - N/A   Clear
5:53 PM 39.9 °F 33.9 °F 28.0 °F 63% 29.95 in 10.0 mi West 9.2 mph - N/A   Clear
6:53 PM 37.9 °F 32.7 °F 27.0 °F 65% 29.97 in 10.0 mi WSW 6.9 mph - N/A   Clear
7:53 PM 37.9 °F 32.7 °F 26.1 °F 62% 29.97 in 10.0 mi SW 6.9 mph - N/A   Clear
8:53 PM 35.1 °F 28.6 °F 25.0 °F 67% 29.98 in 10.0 mi SW 8.1 mph - N/A   Clear
9:53 PM 34.0 °F 27.2 °F 25.0 °F 70% 29.96 in 10.0 mi SSW 8.1 mph - N/A   Clear
10:53 PM 35.1 °F 27.4 °F 25.0 °F 67% 29.95 in 10.0 mi SSW 10.4 mph - N/A   Clear
11:53 PM 34.0 °F 25.0 °F 25.0 °F 70% 29.94 in 10.0 mi SSW 12.7 mph - N/A   Clear